Location: Tamazert
(32.6352°N, 5.2072°W)
Time: 05:34:02
(UTC+00:00)

Vanguard 1 Rocket - Pass Details

Date: 08 October 2022
Orbit: 650 x 4225 km, 34.3° (Epoch: 04 December)

Event Time Altitude Azimuth Distance (km) Brightness Sun altitude
Rises 17:13:02 0° 231° (SW) 8,213 13.6 8.2°
Reaches altitude 10° 17:18:34 10° 229° (SW) 7,348 13.3 7.1°
Maximum altitude 17:44:35 68° 153° (SSE) 3,942 10.6 1.7°
Drops below altitude 10° 18:02:12 10° 75° (ENE) 5,308 10.6 -2.0°
Enters shadow 18:04:51 - 73° (ENE) 5,830 10.8 -2.5°
Sets 18:05:25 0° 73° (ENE) 5,947 - -2.7°
